This is the latest recevied weather packets stored in our database for station/object KQ7A. If no packets are shown the sender has not sent any weather packets the latest 10 day(s).
| Time | Temp. | Humidity | Pressure | Rain* | Wind** | Luminosity | Snow |
|---|---|---|---|---|---|---|---|
| 1787860635 | 30.56° C | 26% | 1021.5 hPa | 0 mm | - | 704 W/m² | - |
| 1787860330 | 30.56° C | 25% | 1021.4 hPa | 0 mm | - | 332 W/m² | - |
| 1787860025 | 31.11° C | 26% | 1021.4 hPa | 0 mm | - | 473 W/m² | - |
| 1787859721 | 30.56° C | 27% | 1021.4 hPa | 0 mm | - | 690 W/m² | - |
| 1787859415 | 30° C | 27% | 1021.2 hPa | 0 mm | - | 487 W/m² | - |
| 1787859110 | 30° C | 27% | 1021.5 hPa | 0 mm | - | 298 W/m² | - |
| 1787858807 | 29.44° C | 28% | 1021.4 hPa | 0 mm | - | 740 W/m² | - |
| 1787858502 | 30° C | 27% | 1021.8 hPa | 0 mm | - | 338 W/m² | - |
| 1787858201 | 30° C | 28% | 1021.5 hPa | 0 mm | - | 437 W/m² | - |
| 1787857897 | 29.44° C | 28% | 1021.4 hPa | 0 mm | - | 586 W/m² | - |
| 1787857593 | 30° C | 35% | 1022 hPa | 0 mm | - | 688 W/m² | - |
| 1787857287 | 30° C | 32% | 1021.9 hPa | 0 mm | - | 385 W/m² | - |
| 1787856986 | 29.44° C | 32% | 1022.2 hPa | 0 mm | - | 404 W/m² | - |
| 1787856680 | 29.44° C | 30% | 1022 hPa | 0 mm | - | 524 W/m² | - |
| 1787856375 | 31.11° C | 33% | 1022 hPa | 0 mm | - | 350 W/m² | - |
| 1787856070 | 30.56° C | 31% | 1021.9 hPa | 0 mm | - | 1108 W/m² | - |
| 1787855770 | 30.56° C | 30% | 1022.2 hPa | 0 mm | - | 1075 W/m² | - |
| 1787855465 | 30° C | 31% | 1022.1 hPa | 0 mm | - | 1102 W/m² | - |
| 1787855161 | 28.33° C | 32% | 1022.1 hPa | 0 mm | - | 1061 W/m² | - |
| 1787854855 | 28.89° C | 34% | 1022.4 hPa | 0 mm | - | 249 W/m² | - |
| 1787854550 | 28.33° C | 33% | 1022 hPa | 0 mm | - | 314 W/m² | - |
| 1787854244 | 28.33° C | 36% | 1022.1 hPa | 0 mm | - | 204 W/m² | - |
| 1787853945 | 28.33° C | 34% | 1022.4 hPa | 0 mm | - | 822 W/m² | - |
| 1787853639 | 28.89° C | 37% | 1022.3 hPa | 0 mm | - | 252 W/m² | - |
| 1787853338 | 29.44° C | 33% | 1022.2 hPa | 0 mm | - | 349 W/m² | - |
* Rain latest hour (hover to see other rain measurements)
** Current wind speed in m/s (hover to see current wind gust speed)